Погода в Красном Боре

Россия / Ярославская область     57°38′21″N   39°58′22″E
темп.,
°C
ветер,
м/с
пор.,
м/с
влажн.,
%
обл.,
%
осадки,
мм/ч
давл.,
гПа
погр.,
м
15 мая, сб
сб1500:00+13юв469667 1.1 1014165
03:00+12вюв3997100 1.1 1013197
06:00+15юв51397100 1.6 1012545
09:00+18юв5988100 2.6 1010379
12:00+22юв477291 0.3 1009574
15:00+16ююв6993100 10.8 1009317
18:00+19ю6128673 1.2 1007588
21:00+16ююз514880 2.5 1008387
16 мая, вс
вс1600:00+14ю411935 0.0 1009268
03:00+12ю410955 0.0 1009235
06:00+13ююз510949 0.0 1009374
09:00+17ююз698143 0.0 1010785
12:00+20ююз796792 0.2 10111531
15:00+20юз7107122 2.6 10111307
18:00+18юз6107922 1.1 1011882
21:00+14ююз49935 1.1 1012185
17 мая, пн
пн1700:00+13юз379559 0.0 1013140
03:00+12юз34954 0.0 101572
06:00+14юз129110 0.0 101693
09:00+18ююз237839 0.0 1016504
12:00+22ю3463100 0.0 10161241
15:00+23ююв345665 0.0 10151438
18:00+22вюв3568100 0.0 1014227
21:00+17в488477 0.1 1014128
18 мая, вт
вт1800:00+15вюв410925 0.3 1014178
03:00+14вюв35935 0.3 101367
06:00+15вюв410885 0.0 1012239
09:00+21юв612685 0.0 1011468
12:00+25юв7135991 0.0 1011807
15:00+26юв711525 0.0 10101223
18:00+23юв6146222 0.0 1009504
21:00+19юв616740 0.0 1009415
19 мая, ср
ср1900:00+18юв6158053 0.0 1008368
03:00+16юв4108591 0.0 1008239
06:00+17юв41086100 0.0 1007301
09:00+20юв5875100 0.0 1007426
12:00+23юв7146189 0.0 10061454
15:00+24вюв6116096 0.1 10041956
18:00+19ю91577100 1.6 1004981
21:00+15ююв5108587 1.7 1003401